Location: Unspecified
(40.7945°N, 111.1337°W)
Time: 09:02:38
(UTC-06:00)

Vanguard 1 - Pass Details

Date: 03 July 2019
Orbit: 653 x 3830 km, 34.3° (Epoch: 15 July)

Event Time Altitude Azimuth Distance (km) Brightness Sun altitude
Rises 00:31:55 0° 231° (SW) 7,548 14.3 -24.9°
Reaches altitude 10° 00:36:53 10° 227° (SW) 6,732 14.0 -25.1°
Maximum altitude 00:59:20 57° 157° (SSE) 4,077 12.7 -25.9°
Drops below altitude 10° 01:17:19 10° 85° (E) 5,567 13.9 -26.2°
Sets 01:20:56 0° 82° (E) 6,236 14.2 -26.2°
